| time (UTC) | temp F | wind direction | speed MPH | gust MPH | rain 1hr in | rain 24hr in | rain mn in | humidity % | barometer mb |
| 20260503202617 | 77 | 177 | 2.0 | 3.0 | 0.00 | 0.00 | 0.00 | 44 | 1010.6 |
| 20260503202117 | 78 | 322 | 2.0 | 7.0 | 0.00 | 0.00 | 0.00 | 44 | 1010.8 |
| 20260503201617 | 77 | 153 | 2.0 | 6.0 | 0.00 | 0.00 | 0.00 | 45 | 1010.8 |
| 20260503201118 | 77 | 96 | 0.0 | 2.0 | 0.00 | 0.00 | 0.00 | 45 | 1010.9 |
| 20260503200657 | 76 | 345 | 1.0 | 6.0 | 0.00 | 0.00 | 0.00 | 46 | 1010.9 |
| 20260503200117 | 76 | 12 | 1.0 | 3.0 | 0.00 | 0.00 | 0.00 | 47 | 1011.0 |
| 20260503195617 | 75 | 119 | 2.0 | 4.0 | 0.00 | 0.00 | 0.00 | 48 | 1011.1 |
| 20260503195117 | 76 | 317 | 4.0 | 7.0 | 0.00 | 0.00 | 0.00 | 47 | 1011.2 |
| 20260503194657 | 76 | 328 | 3.0 | 7.0 | 0.00 | 0.00 | 0.00 | 46 | 1011.1 |
| 20260503194117 | 75 | 45 | 1.0 | 6.0 | 0.00 | 0.00 | 0.00 | 49 | 1011.3 |
| 20260503193617 | 75 | 72 | 3.0 | 7.0 | 0.00 | 0.00 | 0.00 | 50 | 1011.4 |
| 20260503193117 | 75 | 145 | 1.0 | 2.0 | 0.00 | 0.00 | 0.00 | 51 | 1011.4 |
| 20260503192618 | 74 | 110 | 1.0 | 2.0 | 0.00 | 0.00 | 0.00 | 52 | 1011.5 |
| 20260503192117 | 74 | 297 | 2.0 | 6.0 | 0.00 | 0.00 | 0.00 | 52 | 1011.7 |
| 20260503191618 | 74 | 48 | 2.0 | 4.0 | 0.00 | 0.00 | 0.00 | 53 | 1011.8 |
| 20260503191117 | 74 | 296 | 2.0 | 7.0 | 0.00 | 0.00 | 0.00 | 51 | 1011.7 |
| 20260503190657 | 73 | 38 | 2.0 | 3.0 | 0.00 | 0.00 | 0.00 | 53 | 1011.7 |
| 20260503190117 | 74 | 71 | 1.0 | 3.0 | 0.00 | 0.00 | 0.00 | 51 | 1011.9 |
| 20260503185617 | 73 | 0.0 | 0.0 | 0.00 | 0.00 | 0.00 | 51 | 1012.0 | |
| 20260503185117 | 72 | 62 | 2.0 | 6.0 | 0.00 | 0.00 | 0.00 | 53 | 1011.9 |
| 20260503184617 | 73 | 80 | 3.0 | 4.0 | 0.00 | 0.00 | 0.00 | 51 | 1012.0 |
| 20260503184116 | 72 | 41 | 2.0 | 6.0 | 0.00 | 0.00 | 0.00 | 53 | 1012.3 |
| 20260503183617 | 72 | 73 | 1.0 | 2.0 | 0.00 | 0.00 | 0.00 | 53 | 1012.1 |
| 20260503183118 | 71 | 64 | 2.0 | 3.0 | 0.00 | 0.00 | 0.00 | 53 | 1012.3 |
| 20260503182617 | 71 | 56 | 2.0 | 3.0 | 0.00 | 0.00 | 0.00 | 54 | 1012.3 |
| 20260503182117 | 71 | 63 | 2.0 | 3.0 | 0.00 | 0.00 | 0.00 | 54 | 1012.4 |
| 20260503181618 | 72 | 57 | 2.0 | 4.0 | 0.00 | 0.00 | 0.00 | 54 | 1012.4 |
| 20260503181117 | 70 | 0.0 | 0.0 | 0.00 | 0.00 | 0.00 | 57 | 1012.4 | |
| 20260503180637 | 71 | 201 | 1.0 | 4.0 | 0.00 | 0.00 | 0.00 | 56 | 1012.4 |
| 20260503180117 | 71 | 78 | 2.0 | 3.0 | 0.00 | 0.00 | 0.00 | 57 | 1012.4 |
| 20260503175617 | 70 | 42 | 1.0 | 3.0 | 0.00 | 0.00 | 0.00 | 58 | 1012.4 |
| 20260503175117 | 70 | 143 | 1.0 | 2.0 | 0.00 | 0.00 | 0.00 | 57 | 1012.6 |
| 20260503174617 | 70 | 77 | 3.0 | 6.0 | 0.00 | 0.00 | 0.00 | 59 | 1012.5 |
| 20260503174137 | 70 | 0.0 | 0.0 | 0.00 | 0.00 | 0.00 | 60 | 1012.5 | |
| 20260503173617 | 69 | 293 | 1.0 | 3.0 | 0.00 | 0.00 | 0.00 | 61 | 1012.7 |
| 20260503173117 | 69 | 100 | 0.0 | 1.0 | 0.00 | 0.00 | 0.00 | 62 | 1012.6 |
| 20260503172617 | 68 | 300 | 2.0 | 4.0 | 0.00 | 0.00 | 0.00 | 63 | 1012.6 |
| 20260503172117 | 68 | 89 | 1.0 | 3.0 | 0.00 | 0.00 | 0.00 | 65 | 1012.8 |
| 20260503171617 | 67 | 82 | 2.0 | 3.0 | 0.00 | 0.00 | 0.00 | 66 | 1012.8 |
| 20260503171117 | 67 | 93 | 0.0 | 1.0 | 0.00 | 0.00 | 0.00 | 67 | 1012.8 |
| 20260503170618 | 66 | 76 | 1.0 | 3.0 | 0.00 | 0.00 | 0.00 | 68 | 1012.8 |
| 20260503170137 | 66 | 83 | 0.0 | 2.0 | 0.00 | 0.00 | 0.00 | 67 | 1012.9 |
| 20260503160117 | 61 | 307 | 2.0 | 4.0 | 0.00 | 0.00 | 0.00 | 78 | 1013.2 |
| 20260503150637 | 59 | 0.0 | 0.0 | 0.00 | 0.00 | 0.00 | 87 | 1013.3 | |
| 20260503150117 | 58 | 0.0 | 0.0 | 0.00 | 0.00 | 0.00 | 89 | 1013.3 | |
| 20260503140117 | 52 | 0.0 | 0.0 | 0.00 | 0.00 | 0.00 | 99 | 1013.3 | |
| 20260503131118 | 51 | 0.0 | 0.0 | 0.00 | 0.00 | 0.00 | 98 | 1013.4 | |
| 20260503130617 | 51 | 0.0 | 0.0 | 0.00 | 0.00 | 0.00 | 98 | 1013.4 | |
| 20260503130118 | 51 | 0.0 | 0.0 | 0.00 | 0.00 | 0.00 | 98 | 1013.1 | |
| 20260503120117 | 52 | 0.0 | 0.0 | 0.00 | 0.00 | 0.00 | 96 | 1013.3 | |
| 20260503110617 | 53 | 0.0 | 0.0 | 0.00 | 0.00 | 0.00 | 95 | 1013.4 | |
| 20260503110156 | 53 | 0.0 | 0.0 | 0.00 | 0.00 | 0.00 | 95 | 1013.4 | |
| 20260503100118 | 53 | 0.0 | 0.0 | 0.00 | 0.00 | 0.00 | 94 | 1013.5 | |
| 20260503090117 | 55 | 0.0 | 0.0 | 0.00 | 0.00 | 0.00 | 90 | 1013.5 | |
| 20260503081617 | 56 | 0.0 | 0.0 | 0.00 | 0.00 | 0.00 | 84 | 1013.7 | |
| 20260503081118 | 56 | 0.0 | 0.0 | 0.00 | 0.00 | 0.00 | 82 | 1013.7 | |
| 20260503080617 | 56 | 0.0 | 0.0 | 0.00 | 0.00 | 0.00 | 81 | 1013.6 | |
| 20260503080117 | 57 | 0.0 | 0.0 | 0.00 | 0.00 | 0.00 | 79 | 1013.6 | |
| 20260503072617 | 57 | 0.0 | 0.0 | 0.00 | 0.00 | 0.00 | 74 | 1013.5 | |
| 20260503072117 | 58 | 0.0 | 0.0 | 0.00 | 0.00 | 0.00 | 74 | 1013.4 | |
| 20260503071617 | 58 | 0.0 | 0.0 | 0.00 | 0.00 | 0.00 | 74 | 1013.4 | |
| 20260503071117 | 58 | 0.0 | 0.0 | 0.00 | 0.00 | 0.00 | 73 | 1013.4 | |
| 20260503070617 | 58 | 0.0 | 0.0 | 0.00 | 0.00 | 0.00 | 73 | 1013.5 | |
| 20260503070117 | 58 | 0.0 | 0.0 | 0.00 | 0.00 | 0.00 | 71 | 1013.4 | |
| 20260503060117 | 60 | 0.0 | 0.0 | 0.00 | 0.00 | 0.00 | 69 | 1013.1 | |
| 20260503055117 | 62 | 0.0 | 0.0 | 0.00 | 0.00 | 0.00 | 66 | 1013.0 | |
| 20260503054617 | 62 | 0.0 | 0.0 | 0.00 | 0.00 | 0.00 | 65 | 1013.1 | |
| 20260503054118 | 62 | 0.0 | 0.0 | 0.00 | 0.00 | 0.00 | 66 | 1013.0 | |
| 20260503053617 | 63 | 0.0 | 0.0 | 0.00 | 0.00 | 0.00 | 65 | 1012.9 | |
| 20260503053117 | 63 | 0.0 | 0.0 | 0.00 | 0.00 | 0.00 | 62 | 1012.9 | |
| 20260503052618 | 63 | 0.0 | 0.0 | 0.00 | 0.00 | 0.00 | 63 | 1013.0 | |
| 20260503052117 | 64 | 0.0 | 0.0 | 0.00 | 0.00 | 0.00 | 62 | 1012.9 | |
| 20260503051617 | 63 | 0.0 | 0.0 | 0.00 | 0.00 | 0.00 | 62 | 1012.9 | |
| 20260503051117 | 63 | 0.0 | 0.0 | 0.00 | 0.00 | 0.00 | 64 | 1012.8 | |
| 20260503050617 | 63 | 0.0 | 0.0 | 0.00 | 0.00 | 0.00 | 66 | 1012.9 | |
| 20260503050117 | 63 | 0.0 | 0.0 | 0.00 | 0.00 | 0.00 | 67 | 1012.7 | |
| 20260503045616 | 63 | 0.0 | 0.0 | 0.00 | 0.00 | 0.00 | 69 | 1012.7 | |
| 20260503045138 | 63 | 87 | 0.0 | 1.0 | 0.00 | 0.00 | 0.00 | 70 | 1012.6 |
| 20260503044617 | 64 | 0.0 | 0.0 | 0.00 | 0.00 | 0.00 | 70 | 1012.5 | |
| 20260503044117 | 64 | 0.0 | 0.0 | 0.00 | 0.00 | 0.00 | 68 | 1012.6 | |
| 20260503043617 | 63 | 0.0 | 0.0 | 0.00 | 0.00 | 0.00 | 68 | 1012.6 | |
| 20260503043117 | 64 | 0.0 | 0.0 | 0.00 | 0.00 | 0.00 | 67 | 1012.6 | |
| 20260503042617 | 64 | 0.0 | 0.0 | 0.00 | 0.00 | 0.00 | 67 | 1012.5 | |
| 20260503042117 | 65 | 0.0 | 0.0 | 0.00 | 0.00 | 0.00 | 66 | 1012.7 | |
| 20260503041617 | 65 | 0.0 | 0.0 | 0.00 | 0.00 | 0.00 | 66 | 1012.4 | |
| 20260503041117 | 65 | 0.0 | 0.0 | 0.00 | 0.00 | 0.00 | 66 | 1012.4 | |
| 20260503040657 | 66 | 0.0 | 0.0 | 0.00 | 0.00 | 0.00 | 65 | 1012.3 | |
| 20260503040117 | 66 | 0.0 | 0.0 | 0.00 | 0.00 | 0.00 | 63 | 1012.1 | |
| 20260503035617 | 66 | 0.0 | 0.0 | 0.00 | 0.00 | 0.00 | 63 | 1012.2 | |
| 20260503035117 | 66 | 102 | 0.0 | 1.0 | 0.00 | 0.00 | 0.00 | 63 | 1012.0 |
| 20260503034617 | 66 | 0.0 | 0.0 | 0.00 | 0.00 | 0.00 | 64 | 1011.9 | |
| 20260503034117 | 67 | 0.0 | 0.0 | 0.00 | 0.00 | 0.00 | 64 | 1011.9 | |
| 20260503033637 | 67 | 84 | 1.0 | 3.0 | 0.00 | 0.00 | 0.00 | 61 | 1011.9 |
| 20260503033117 | 67 | 0.0 | 0.0 | 0.00 | 0.00 | 0.00 | 63 | 1011.8 | |
| 20260503032616 | 68 | 0.0 | 0.0 | 0.00 | 0.00 | 0.00 | 62 | 1011.7 | |
| 20260503032117 | 68 | 0.0 | 0.0 | 0.00 | 0.00 | 0.00 | 61 | 1011.6 | |
| 20260503031638 | 68 | 0.0 | 0.0 | 0.00 | 0.00 | 0.00 | 61 | 1011.8 | |
| 20260503031137 | 69 | 0.0 | 0.0 | 0.00 | 0.00 | 0.00 | 61 | 1011.6 | |
| 20260503030617 | 69 | 0.0 | 0.0 | 0.00 | 0.00 | 0.00 | 59 | 1011.5 | |
| 20260503030117 | 69 | 74 | 1.0 | 2.0 | 0.00 | 0.00 | 0.00 | 58 | 1011.6 |
| 20260503025617 | 70 | 0.0 | 0.0 | 0.00 | 0.00 | 0.00 | 58 | 1011.4 | |
| 20260503025117 | 70 | 0.0 | 0.0 | 0.00 | 0.00 | 0.00 | 58 | 1011.3 | |
| 20260503024617 | 71 | 80 | 1.0 | 2.0 | 0.00 | 0.00 | 0.00 | 57 | 1011.3 |
| 20260503024137 | 71 | 87 | 1.0 | 3.0 | 0.00 | 0.00 | 0.00 | 56 | 1011.3 |
| 20260503023618 | 71 | 0.0 | 0.0 | 0.00 | 0.00 | 0.00 | 57 | 1011.2 | |
| 20260503023118 | 71 | 80 | 1.0 | 2.0 | 0.00 | 0.00 | 0.00 | 55 | 1011.1 |
| 20260503022618 | 72 | 2 | 1.0 | 2.0 | 0.00 | 0.00 | 0.00 | 55 | 1011.2 |
| 20260503022117 | 72 | 0.0 | 0.0 | 0.00 | 0.00 | 0.00 | 54 | 1011.0 | |
| 20260503021617 | 72 | 79 | 0.0 | 1.0 | 0.00 | 0.00 | 0.00 | 54 | 1011.1 |
| 20260503021117 | 73 | 75 | 1.0 | 2.0 | 0.00 | 0.00 | 0.00 | 53 | 1011.2 |
| 20260503020617 | 73 | 57 | 2.0 | 4.0 | 0.00 | 0.00 | 0.00 | 51 | 1011.1 |
| 20260503020117 | 73 | 2 | 3.0 | 7.0 | 0.00 | 0.00 | 0.00 | 51 | 1011.1 |
| 20260503015637 | 73 | 63 | 2.0 | 3.0 | 0.00 | 0.00 | 0.00 | 51 | 1011.1 |
| 20260503015118 | 73 | 82 | 1.0 | 4.0 | 0.00 | 0.00 | 0.00 | 53 | 1011.1 |
| 20260503014618 | 73 | 52 | 2.0 | 3.0 | 0.00 | 0.00 | 0.00 | 51 | 1011.2 |
| 20260503014118 | 74 | 72 | 2.0 | 2.0 | 0.00 | 0.00 | 0.00 | 51 | 1011.2 |
| 20260503013617 | 74 | 0.0 | 0.0 | 0.00 | 0.00 | 0.00 | 52 | 1011.2 | |
| 20260503013137 | 74 | 89 | 0.0 | 1.0 | 0.00 | 0.00 | 0.00 | 50 | 1011.1 |
| 20260503012637 | 74 | 84 | 0.0 | 1.0 | 0.00 | 0.00 | 0.00 | 51 | 1011.3 |
| 20260503012117 | 75 | 53 | 2.0 | 7.0 | 0.00 | 0.00 | 0.00 | 50 | 1011.2 |
| 20260503011617 | 75 | 0.0 | 0.0 | 0.00 | 0.00 | 0.00 | 49 | 1011.2 | |
| 20260503011117 | 75 | 87 | 0.0 | 2.0 | 0.00 | 0.00 | 0.00 | 50 | 1011.1 |
| 20260503010617 | 75 | 66 | 1.0 | 2.0 | 0.00 | 0.00 | 0.00 | 48 | 1011.1 |
| 20260503010117 | 75 | 333 | 4.0 | 8.0 | 0.00 | 0.00 | 0.00 | 48 | 1011.2 |
| 20260503005618 | 75 | 79 | 1.0 | 2.0 | 0.00 | 0.00 | 0.00 | 48 | 1011.3 |
| 20260503005118 | 76 | 55 | 2.0 | 4.0 | 0.00 | 0.00 | 0.00 | 47 | 1011.3 |
| 20260503004617 | 76 | 85 | 1.0 | 1.0 | 0.00 | 0.00 | 0.00 | 48 | 1011.3 |
| 20260503004117 | 75 | 93 | 1.0 | 1.0 | 0.00 | 0.00 | 0.00 | 48 | 1011.4 |
| 20260503003617 | 75 | 326 | 0.0 | 3.0 | 0.00 | 0.00 | 0.00 | 47 | 1011.5 |
| 20260503003117 | 75 | 85 | 1.0 | 2.0 | 0.00 | 0.00 | 0.00 | 48 | 1011.4 |
| 20260503002617 | 75 | 72 | 1.0 | 3.0 | 0.00 | 0.00 | 0.00 | 48 | 1011.4 |
| 20260503002116 | 76 | 0.0 | 0.0 | 0.00 | 0.00 | 0.00 | 49 | 1011.3 | |
| 20260503001637 | 75 | 76 | 0.0 | 1.0 | 0.00 | 0.00 | 0.00 | 49 | 1011.3 |
| 20260503001137 | 75 | 76 | 1.0 | 3.0 | 0.00 | 0.00 | 0.00 | 51 | 1011.4 |
| 20260503000618 | 75 | 45 | 1.0 | 4.0 | 0.00 | 0.00 | 0.00 | 50 | 1011.5 |
| 20260503000137 | 74 | 94 | 1.0 | 2.0 | 0.00 | 0.00 | 0.00 | 50 | 1011.5 |
| 20260502235617 | 74 | 81 | 1.0 | 3.0 | 0.00 | 0.00 | 0.00 | 51 | 1011.6 |
| 20260502235117 | 74 | 19 | 4.0 | 7.0 | 0.00 | 0.00 | 0.00 | 50 | 1011.6 |
| 20260502234617 | 74 | 42 | 3.0 | 6.0 | 0.00 | 0.00 | 0.00 | 51 | 1011.6 |
| 20260502234117 | 75 | 62 | 0.0 | 3.0 | 0.00 | 0.00 | 0.00 | 52 | 1011.7 |
| 20260502233636 | 75 | 6 | 5.0 | 9.0 | 0.00 | 0.00 | 0.00 | 51 | 1011.9 |
| 20260502233118 | 75 | 81 | 1.0 | 3.0 | 0.00 | 0.00 | 0.00 | 52 | 1012.0 |
| 20260502232617 | 76 | 85 | 1.0 | 2.0 | 0.00 | 0.00 | 0.00 | 50 | 1012.0 |
| 20260502232138 | 75 | 73 | 1.0 | 4.0 | 0.00 | 0.00 | 0.00 | 52 | 1012.0 |
| 20260502231617 | 74 | 48 | 2.0 | 4.0 | 0.00 | 0.00 | 0.00 | 53 | 1012.1 |
| 20260502231117 | 75 | 333 | 3.0 | 7.0 | 0.00 | 0.00 | 0.00 | 52 | 1012.2 |
| 20260502230617 | 74 | 64 | 1.0 | 2.0 | 0.00 | 0.00 | 0.00 | 54 | 1012.2 |
| 20260502230117 | 74 | 14 | 2.0 | 7.0 | 0.00 | 0.00 | 0.00 | 54 | 1012.3 |
| 20260502225617 | 74 | 62 | 2.0 | 4.0 | 0.00 | 0.00 | 0.00 | 55 | 1012.4 |
| 20260502225116 | 75 | 81 | 3.0 | 4.0 | 0.00 | 0.00 | 0.00 | 54 | 1012.5 |
| 20260502224637 | 74 | 59 | 2.0 | 6.0 | 0.00 | 0.00 | 0.00 | 54 | 1012.6 |
| 20260502224137 | 74 | 23 | 3.0 | 4.0 | 0.00 | 0.00 | 0.00 | 55 | 1012.6 |
| 20260502223638 | 74 | 43 | 3.0 | 4.0 | 0.00 | 0.00 | 0.00 | 54 | 1012.6 |
| 20260502223137 | 74 | 62 | 1.0 | 3.0 | 0.00 | 0.00 | 0.00 | 55 | 1012.8 |
| 20260502222617 | 74 | 72 | 1.0 | 3.0 | 0.00 | 0.00 | 0.00 | 54 | 1012.8 |
| 20260502222137 | 74 | 265 | 3.0 | 7.0 | 0.00 | 0.00 | 0.00 | 54 | 1012.9 |
| 20260502221617 | 73 | 309 | 2.0 | 6.0 | 0.00 | 0.00 | 0.00 | 55 | 1012.8 |
| 20260502221137 | 74 | 25 | 3.0 | 6.0 | 0.00 | 0.00 | 0.00 | 54 | 1012.8 |
| 20260502220617 | 73 | 24 | 5.0 | 8.0 | 0.00 | 0.00 | 0.00 | 55 | 1013.0 |
| 20260502220117 | 73 | 48 | 1.0 | 3.0 | 0.00 | 0.00 | 0.00 | 55 | 1012.9 |
| 20260502215618 | 74 | 41 | 1.0 | 3.0 | 0.00 | 0.00 | 0.00 | 55 | 1013.1 |
| 20260502215157 | 73 | 96 | 0.0 | 1.0 | 0.00 | 0.00 | 0.00 | 56 | 1013.1 |
| 20260502214617 | 73 | 75 | 3.0 | 4.0 | 0.00 | 0.00 | 0.00 | 56 | 1013.1 |
| 20260502214117 | 74 | 63 | 2.0 | 6.0 | 0.00 | 0.00 | 0.00 | 55 | 1013.3 |
| 20260502213617 | 72 | 0.0 | 0.0 | 0.00 | 0.00 | 0.00 | 58 | 1013.3 | |
| 20260502213117 | 72 | 12 | 2.0 | 8.0 | 0.00 | 0.00 | 0.00 | 58 | 1013.4 |
| 20260502212617 | 72 | 79 | 1.0 | 2.0 | 0.00 | 0.00 | 0.00 | 58 | 1013.4 |
| 20260502212117 | 72 | 68 | 1.0 | 2.0 | 0.00 | 0.00 | 0.00 | 57 | 1013.5 |
| 20260502211617 | 72 | 96 | 3.0 | 7.0 | 0.00 | 0.00 | 0.00 | 58 | 1013.5 |
| 20260502211117 | 71 | 71 | 0.0 | 2.0 | 0.00 | 0.00 | 0.00 | 60 | 1013.5 |
| 20260502210618 | 71 | 62 | 2.0 | 4.0 | 0.00 | 0.00 | 0.00 | 60 | 1013.6 |
| 20260502210117 | 70 | 49 | 3.0 | 6.0 | 0.00 | 0.00 | 0.00 | 60 | 1013.6 |
| 20260502205617 | 70 | 62 | 2.0 | 4.0 | 0.00 | 0.00 | 0.00 | 60 | 1013.6 |
| 20260502205117 | 70 | 123 | 1.0 | 3.0 | 0.00 | 0.00 | 0.00 | 61 | 1013.8 |
| 20260502204617 | 70 | 113 | 1.0 | 3.0 | 0.00 | 0.00 | 0.00 | 60 | 1013.8 |
| 20260502204117 | 71 | 75 | 3.0 | 6.0 | 0.00 | 0.00 | 0.00 | 60 | 1013.7 |
| 20260502203617 | 71 | 77 | 3.0 | 6.0 | 0.00 | 0.00 | 0.00 | 61 | 1013.9 |
| 20260502203117 | 70 | 106 | 0.0 | 2.0 | 0.00 | 0.00 | 0.00 | 62 | 1013.9 |